Regional Weather Roundup
Issued by NWS

Home | Current Version | Previous Version | Graphics & Text | Print | Product List | Glossary On
Versions: 1 2 3 4 5 6 7 8 9 10 11 12 13 14 15 16 17 18 19 20 21 22 23 24 25 26 27 28 29 30 31 32 33 34 35 36 37 38 39 40 41 42 43 44 45 46 47 48 49 50
000
ASUS43 KDMX 222206
RWRIA

WEATHER ROUNDUP FOR IOWA
NATIONAL WEATHER SERVICE DES MOINES IA
500 PM CDT SAT JUL 22 2017

NOTE: "FAIR" INDICATES FEW OR NO CLOUDS BELOW 12,000 FEET WITH NO
SIGNIFICANT WEATHER AND/OR OBSTRUCTIONS TO VISIBILITY.

* - THESE STATIONS ARE NOT NWS STATIONS...THUS NOT UNDER NWS
QUALITY CONTROL.  THEY ALSO DO NOT REPORT WEATHER SUCH
AS PRECIPITATION OR FOG.

IAZ001>003-012>014-020>022-031>034-043>046-222300-
   NORTHWEST IOWA

CITY           SKY/WX    TMP DP  RH WIND       PRES   REMARKS
CARROLL *      PTSUNNY   82  77  83 CALM      29.88S HX  91
CHEROKEE *     CLOUDY    84  74  73 NW10      29.89F HX  91
DENISON *      CLOUDY    82  75  78 NW12      29.91S HX  89
ORANGE CITY *  CLOUDY    82  75  78 NW8       29.93S HX  89
SHELDON *      MOSUNNY   84  72  65 NW9       29.90F HX  89
SIOUX CITY     MOSUNNY   80  74  81 NW7       29.91S HX  85
SPENCER        MOSUNNY   88  71  57 NW16      29.90R HX  94
STORM LAKE *   CLOUDY    82  73  74 NW12G18   29.91R HX  88
$$

IAZ055>058-069>071-079>083-090>094-222300-
   SOUTHWEST IOWA

CITY           SKY/WX    TMP DP  RH WIND       PRES   REMARKS
ATLANTIC *     MOSUNNY   88  77  70 N6        29.86S HX 100
AUDUBON *      PTSUNNY   86  79  79 N9        29.90R HX  99
CLARINDA *     SUNNY     90  79  70 N10G17    29.87R HX 105
COUNCIL BLFS * MOSUNNY   88  79  74 N9        29.89R HX 102
CRESTON *      SUNNY     90  73  58 N13       29.88S HX  98
HARLAN  *      CLOUDY    86  79  79 N8        29.91S HX  99
LAMONI         SUNNY     96  78  56 NW7       29.83R HX 112
RED OAK *      MOSUNNY   88  77  70 N10       29.87R HX 100
SHENANDOAH *   SUNNY     88  79  74 N9        29.86S HX 102
$$

IAZ047>049-059>061-072>074-084-222300-
   CENTRAL IOWA

CITY           SKY/WX    TMP DP  RH WIND       PRES   REMARKS
AMES           CLOUDY    83  75  77 NW6       29.86R HX  90
ANKENY *       SUNNY     88  73  62 N10       29.86R HX  96
BOONE *        PTSUNNY   82  73  74 NW6       29.87S HX  88
CHARITON *     SUNNY     90  73  58 N12       29.83R HX  98
DES MOINES     MOSUNNY   91  73  55 N10       29.84R HX  99
GRINNELL*      CLOUDY    81  73  76 NW6       29.87R HX  86
KNOXVILLE *    MOSUNNY   86  72  62 N10       29.83R HX  92
MARSHALLTOWN   CLOUDY    86  74  67 NW9       29.85R HX  94
NEWTON *       PTSUNNY   84  73  70 N8        29.85S HX  91
PELLA *        MOSUNNY   88  73  60 N8        29.85R HX  95
$$

IAZ004>006-015-016-023>025-035-036-222300-
   NORTH CENTRAL IOWA

CITY           SKY/WX    TMP DP  RH WIND       PRES   REMARKS
ALGONA *       MOSUNNY   86  73  66 NW8       29.87F HX  93
ESTHERVILLE    MOSUNNY   85  72  65 NW13      29.87F HX  91
FORT DODGE *   CLOUDY    84  73  70 CALM      29.88S HX  91
MASON CITY     MOSUNNY   85  72  65 NW10      29.88R HX  91
FOREST CITY *  CLOUDY    82  72  69 N7        29.88S HX  87
WEBSTER CITY * PTSUNNY   82  73  74 N7        29.86S HX  88
IOWA FALLS *     N/A     84  73  67 NW7       29.88S HX  90
$$

IAZ007>011-017>019-026>030-037>042-050>054-066-222300-
   NORTHEAST IOWA

CITY           SKY/WX    TMP DP  RH WIND       PRES   REMARKS
CEDAR RAPIDS   CLOUDY    81  75  82 NW5       29.82R HX  87
CHARLES CITY * PTSUNNY   81  75  83 VRB5      29.86S HX  86
DECORAH *      MOSUNNY   81  72  74 CALM      29.83S HX  84
DUBUQUE        CLOUDY    82  72  71 CALM      29.82S HX  87
MONTICELLO *   PTSUNNY   82  73  74 CALM      29.81S HX  88
OELWEIN *        N/A    N/A N/A N/A MISG        N/A
WATERLOO       PTSUNNY   84  72  67 N7        29.83R HX  89
$$

IAZ064-065-067-068-078-222300-
   EAST CENTRAL IOWA

CITY           SKY/WX    TMP DP  RH WIND       PRES   REMARKS
DAVENPORT      CLOUDY    82  73  74 CALM      29.83F HX  87
IOWA CITY      CLOUDY    86  74  67 N7        29.81S HX  94
MT. PLEASANT * SUNNY     90  76  64 N6        29.78F HX 101
MUSCATINE *    PTSUNNY   86  75  70 NE5       29.79F HX  95
QUAD CITIES    CLOUDY    85  73  67 NW3       29.80S HX  91
$$

IAZ062-063-075>077-085>089-095>099-222300-
   SOUTHEAST IOWA

CITY           SKY/WX    TMP DP  RH WIND       PRES   REMARKS
BURLINGTON     MOSUNNY   89  78  70 E6        29.78F HX 103
FAIRFIELD *    MOSUNNY   90  77  66 N8        29.79S HX 102
FORT MADISON * MOSUNNY   88  81  79 NE10      29.78F HX 105
KEOKUK *       MOSUNNY   93  77  59 CALM      29.77F HX 107
OSKALOOSA *      N/A     88  74  63 N9        29.82S HX  97
CENTERVILLE *    N/A     91  77  62 CALM      29.83R HX 105
OTTUMWA        SUNNY     91  75  59 N8        29.80R HX 101
WASHINGTON *   PTSUNNY   84  79  84 N6        29.81S HX  96
$$

ABBREVIATIONS USED IN REMARKS
   TC - TEMPERATURES IN CELSIUS
  WCI - WIND CHILL INDEX
   HX - HEAT INDEX
  VSB - VISIBILITY
$$





USA.gov is the U.S. government's official web portal to all federal, state and local government web resources and services.